[[{"header":{"parameterUnit":"m.s-1","parameterCategory":1,"la1":30.2991,"la2":30.254,"lo1":-89.0895,"lo2":-89.0444,"dy":0.0017,"dx":0.0017,"nx":28,"ny":28,"refTime":"2024-06-10T21:00:00:Z","depth":0,"parameterNumber":2,"parameterNumberName":"U-component_of_WINDS"},"data":[0,0,0,0,0,0,0,0,0,0,0,0,0,0,0,0,0,0,0,0,0,0,0,0,0,0,0,0,0,0,0,0,0,0,0,0,0,0,0,0,0,0,0,0,0,0,0,0,0,0,0,0,0,0,0,0,0,0,1.0371,1.0371,0,1.0419,1.042,1.042,1.0373,1.0371,1.0369,1.0367,1.0424,1.0428,1.0431,0,0,0,0,0,0,0,0,0,0,0,0,0,1.0245,1.0248,1.0371,1.0371,1.0372,1.0419,1.042,1.042,1.0373,1.0371,1.0368,1.0366,1.0423,1.0427,1.0431,0,0,0,0,0,0,0,0,0,0,0,0,0,1.0297,1.0248,1.037,1.0354,1.0353,1.0419,1.042,1.0421,1.0373,1.037,1.0368,1.0365,1.0422,1.0427,1.0432,1.052,0,0,1.0447,1.0449,0,0,0,0,0,0,0,0,1.0294,1.0302,1.0355,1.0355,1.0354,1.0387,1.0396,1.0454,1.0374,1.0366,1.0367,1.0364,1.0415,1.042,1.0436,1.0522,1.0525,1.0447,1.045,1.0453,1.0454,0,0,0,0,0,0,0,1.0291,1.03,1.039,1.0356,1.0355,1.0346,1.0351,1.0407,1.0406,1.0366,1.0363,1.0369,1.0414,1.0431,1.0437,1.0526,1.0447,1.0452,1.0455,1.0457,1.0689,1.0692,0,0,0,0,0,0,1.0288,1.0297,1.0388,1.0391,1.0316,1.0351,1.0356,1.0379,1.0405,1.0406,1.0371,1.0366,1.0424,1.0431,1.0439,1.0545,1.0453,1.0457,1.046,1.0686,1.069,1.0694,0,0,0,0,0,0,1.0285,1.0297,1.0386,1.0343,1.0354,1.0356,1.0383,1.0382,1.0399,1.0409,1.0409,1.0389,1.0422,1.0432,1.05,1.0546,1.0459,1.0464,1.0682,1.0687,1.0692,1.0757,0,0,0,0,0,0,1.0282,1.0296,1.0327,1.0344,1.0356,1.0445,1.0386,1.0385,1.0406,1.0401,1.0425,1.0427,1.0421,1.0493,1.0505,1.0551,1.0468,1.0678,1.0685,1.069,1.0751,1.0763,1.0774,0,0,0,0,0,1.0278,1.0345,1.0329,1.034,1.0395,1.0447,1.0454,1.0444,1.041,1.0443,1.045,1.0426,1.0539,1.05,1.0513,1.0562,1.0675,1.0683,1.069,1.0746,1.0761,1.0774,0,0,0,0,0,0,1.0336,1.0347,1.0329,1.0403,1.0424,1.0439,1.048,1.046,1.0493,1.0487,1.0475,1.0481,1.0553,1.0564,1.0521,1.065,1.0602,1.0612,1.064,1.0655,1.0666,1.0663,1.0472,0,0,0,0,0,1.0357,1.0395,1.0404,1.0469,1.048,1.0478,1.0501,1.049,1.0513,1.0522,1.0534,1.0559,1.06,1.0628,1.0666,1.0752,1.0758,1.0792,1.0804,1.0813,1.0823,1.0872,1.0888,1.0717,1.0717,1.0717,0,0,1.0401,1.0412,1.0438,1.0481,1.0496,1.0539,1.0486,1.0534,1.0567,1.053,1.0595,1.0605,1.0632,1.071,1.0745,1.0721,1.0871,1.0823,1.083,1.0835,1.0881,1.0897,1.0911,1.0722,1.0721,1.0721,0,0,1.0505,1.0516,1.0572,1.0588,1.061,1.0609,1.0623,1.064,1.0645,1.0709,1.0683,1.0724,1.0794,1.0815,1.0835,1.0948,1.0928,1.0961,1.1023,1.1071,1.1084,1.1096,1.1139,1.1154,1.097,1.097,1.097,0,1.0558,1.0619,1.0604,1.0653,1.0674,1.0641,1.0699,1.0716,1.0752,1.0768,1.0741,1.083,1.0846,1.0929,1.0956,1.0973,1.0991,1.0959,1.1083,1.1095,1.1106,1.1146,1.1162,1.0974,1.0974,1.0973,1.0973,0,1.0685,1.0728,1.0771,1.0804,1.083,1.0884,1.0879,1.0907,1.0895,1.0898,1.0965,1.0983,1.1025,1.1044,1.1034,1.1127,1.1112,1.1084,1.1036,1.1126,1.1164,1.1179,1.098,1.0978,1.0977,1.0976,0,0,1.0827,1.085,1.0867,1.0882,1.0905,1.094,1.0993,1.1032,1.1058,1.1084,1.1131,1.1191,1.1166,1.1189,1.118,1.1222,1.1313,1.1189,1.1189,1.1213,1.142,1.1442,1.146,1.1299,1.1302,1.1304,1.1418,0,1.0933,1.1023,1.1011,1.1099,1.1141,1.111,1.1157,1.1178,1.1182,1.122,1.1226,1.127,1.1231,1.1245,1.1285,1.1293,1.1355,1.1285,1.1346,1.1348,1.1341,1.148,1.1503,1.161,1.1433,1.1435,1.1437,0,1.1068,1.1097,1.1189,1.1207,1.1224,1.1266,1.1302,1.1337,1.1362,1.1362,1.1388,1.1372,1.1429,1.1379,1.1459,1.1412,1.1436,1.1444,1.1448,1.1455,1.1399,1.1493,1.1644,1.1661,1.146,1.1458,1.1457,0,1.1166,1.1227,1.129,1.1304,1.1326,1.1357,1.1369,1.139,1.1414,1.1447,1.1463,1.1502,1.1525,1.1557,1.1554,1.1517,1.1636,1.1585,1.1641,1.1641,1.1669,1.1668,1.1828,1.1681,1.1681,1.1681,1.168,0,1.1286,1.1344,1.1335,1.1374,1.1439,1.1425,1.1491,1.1499,1.1518,1.156,1.1537,1.1578,1.157,1.1612,1.161,1.1678,1.1688,1.1692,1.1691,1.1695,1.1695,1.1713,1.1706,1.1685,1.1684,1.1683,1.1682,0,1.1406,1.1402,1.1469,1.1484,1.1489,1.1537,1.1551,1.159,1.1592,1.1646,1.1658,1.1662,1.171,1.171,1.1765,1.1764,1.1848,1.1838,1.1839,1.1838,1.1895,1.189,1.2074,1.2099,1.1934,1.1935,1.1936,0,1.1484,1.1528,1.1547,1.1573,1.1585,1.1627,1.1652,1.1641,1.1669,1.17,1.1736,1.1781,1.1817,1.1896,1.1906,1.1948,1.194,1.2002,1.1947,1.195,1.1944,1.1942,1.1948,1.2013,1.2015,1.2017,1.2018,0,1.1624,1.162,1.1655,1.1691,1.172,1.1748,1.1774,1.1797,1.1789,1.1822,1.1869,1.1897,1.1953,1.2,1.2041,1.2055,1.2037,1.2035,1.205,1.2056,1.2056,1.2059,1.1871,1.2031,1.203,1.2029,1.2028,1.2028,1.1727,1.1765,1.1785,1.1826,1.1844,1.1868,1.1906,1.1912,1.195,1.1993,1.1985,1.204,1.2065,1.2118,1.2137,1.2181,1.216,1.2182,1.2188,1.2194,1.2201,1.2047,1.2188,1.2188,1.2187,1.2187,1.2187,0,1.1867,1.1879,1.1916,1.1952,1.1985,1.1961,1.1989,1.2019,1.2066,1.209,1.2125,1.2182,1.2227,1.224,1.2285,1.2318,1.2311,1.233,1.2329,1.2333,1.2216,1.2199,1.2335,1.2335,1.2335,1.2335,1.2335,1.2335,1.1945,1.2008,1.2007,1.208,1.2092,1.2143,1.2161,1.2185,1.2204,1.2267,1.2304,1.2311,1.2332,1.2377,1.2419,1.2422,1.2441,1.2464,1.2464,1.2356,1.2341,1.2327,1.2311,1.2468,1.2468,1.2577,1.2578,1.2579]},{"header":{"parameterUnit":"m.s-1","parameterCategory":1,"la1":30.2991,"la2":30.254,"lo1":-89.0895,"lo2":-89.0444,"dy":0.0017,"dx":0.0017,"nx":28,"ny":28,"refTime":"2024-06-10T21:00:00:Z","depth":0,"parameterNumber":3,"parameterNumberName":"V-component_of_WINDS"},"data":[0,0,0,0,0,0,0,0,0,0,0,0,0,0,0,0,0,0,0,0,0,0,0,0,0,0,0,0,0,0,0,0,0,0,0,0,0,0,0,0,0,0,0,0,0,0,0,0,0,0,0,0,0,0,0,0,0,0,2.2256,2.2256,0,2.2303,2.2303,2.2304,2.2291,2.229,2.2289,2.2288,2.2335,2.2337,2.2339,0,0,0,0,0,0,0,0,0,0,0,0,0,2.215,2.2152,2.2255,2.2256,2.2257,2.2303,2.2303,2.2304,2.2291,2.229,2.2289,2.2288,2.2334,2.2336,2.2339,0,0,0,0,0,0,0,0,0,0,0,0,0,2.2196,2.2152,2.2255,2.2256,2.2256,2.2303,2.2303,2.2304,2.2291,2.229,2.2288,2.2287,2.2333,2.2336,2.2339,2.2387,0,0,2.2349,2.235,0,0,0,0,0,0,0,0,2.2194,2.22,2.2255,2.2256,2.2257,2.229,2.2283,2.2332,2.2292,2.2278,2.2288,2.2286,2.2321,2.2325,2.2337,2.239,2.2392,2.2349,2.2351,2.2353,2.2354,0,0,0,0,0,0,0,2.219,2.2198,2.2274,2.2256,2.2257,2.2252,2.2257,2.2292,2.2307,2.2279,2.2278,2.2284,2.2321,2.2334,2.2338,2.2392,2.2349,2.2352,2.2354,2.2355,2.2482,2.2483,0,0,0,0,0,0,2.2187,2.2195,2.2273,2.2276,2.2221,2.2255,2.2261,2.228,2.2306,2.2309,2.2285,2.2283,2.2329,2.2334,2.2339,2.2394,2.2353,2.2356,2.2357,2.248,2.2482,2.2484,0,0,0,0,0,0,2.2185,2.2194,2.2271,2.2235,2.2245,2.2259,2.2281,2.2282,2.2295,2.2311,2.2313,2.2296,2.2328,2.2335,2.2375,2.2395,2.2357,2.236,2.2479,2.2481,2.2483,2.2505,0,0,0,0,0,0,2.2182,2.2193,2.2213,2.2236,2.2247,2.2307,2.2282,2.2284,2.2301,2.2299,2.2322,2.2324,2.2327,2.237,2.2378,2.2399,2.2362,2.2477,2.248,2.2482,2.2503,2.2508,2.2512,0,0,0,0,0,2.2178,2.2218,2.2214,2.2224,2.2272,2.2308,2.2314,2.2317,2.2303,2.2321,2.2331,2.2323,2.2392,2.2374,2.2383,2.2405,2.2476,2.2479,2.2482,2.2501,2.2507,2.2512,0,0,0,0,0,0,2.2198,2.2221,2.2217,2.2266,2.2285,2.2306,2.233,2.2325,2.2348,2.2345,2.2348,2.2353,2.2393,2.2404,2.2383,2.2451,2.2431,2.2437,2.2442,2.2449,2.2453,2.2449,2.2365,0,0,0,0,0,2.2208,2.2237,2.2255,2.2296,2.2306,2.2316,2.2332,2.2333,2.2353,2.236,2.2373,2.2392,2.2417,2.2434,2.2458,2.2505,2.2507,2.2524,2.2529,2.2533,2.2537,2.2558,2.2564,2.2495,2.2495,2.2494,0,0,2.2229,2.2245,2.2263,2.23,2.2315,2.2342,2.2323,2.2354,2.2374,2.2365,2.2402,2.2412,2.2433,2.2475,2.2494,2.2485,2.2556,2.2537,2.254,2.2542,2.2562,2.2568,2.2574,2.2497,2.2496,2.2496,0,0,2.228,2.2297,2.2331,2.2346,2.2368,2.2374,2.2382,2.2403,2.2409,2.2447,2.244,2.2463,2.2508,2.2521,2.2534,2.2587,2.258,2.2595,2.262,2.264,2.2646,2.265,2.2666,2.2672,2.2599,2.2599,2.2599,0,2.2304,2.2346,2.2349,2.238,2.2394,2.2388,2.242,2.2434,2.2464,2.2473,2.2463,2.2516,2.253,2.2573,2.2585,2.2597,2.2604,2.2592,2.2645,2.265,2.2654,2.2669,2.2675,2.2601,2.26,2.26,2.26,0,2.2371,2.24,2.2424,2.2451,2.2469,2.2501,2.2507,2.2525,2.2523,2.253,2.2566,2.2582,2.2608,2.2619,2.2618,2.2661,2.2654,2.2644,2.2624,2.2662,2.2676,2.2682,2.2603,2.2602,2.2602,2.2601,0,0,2.2437,2.2463,2.2472,2.2482,2.2505,2.2527,2.2557,2.2582,2.2595,2.2615,2.2638,2.2674,2.2664,2.2679,2.268,2.2698,2.2734,2.2686,2.2686,2.2691,2.2778,2.2783,2.279,2.273,2.2731,2.2732,2.2775,0,2.2488,2.254,2.2543,2.259,2.2614,2.2607,2.2632,2.2648,2.2654,2.2675,2.2682,2.2706,2.2693,2.2701,2.2719,2.2726,2.2751,2.2724,2.2749,2.275,2.2742,2.2798,2.2804,2.2844,2.2781,2.2782,2.2783,0,2.2554,2.2574,2.2624,2.2639,2.265,2.2673,2.2694,2.2715,2.2731,2.2734,2.2749,2.2746,2.2774,2.2754,2.2791,2.2772,2.2782,2.2787,2.2789,2.279,2.2767,2.2797,2.2857,2.2862,2.2792,2.2791,2.279,0,2.2593,2.2633,2.2666,2.2676,2.2696,2.2712,2.2721,2.2736,2.2749,2.2768,2.2776,2.2797,2.2808,2.2824,2.2826,2.2812,2.2862,2.2844,2.2863,2.2863,2.2872,2.2871,2.2932,2.2884,2.2884,2.2883,2.2883,0,2.2648,2.2677,2.2683,2.2704,2.2735,2.2737,2.2768,2.2776,2.2789,2.2809,2.2805,2.2823,2.2826,2.2845,2.2847,2.2875,2.2881,2.2883,2.2882,2.2882,2.2881,2.2887,2.2883,2.2885,2.2885,2.2884,2.2884,0,2.2695,2.2701,2.2737,2.2752,2.2756,2.2779,2.2791,2.2809,2.2815,2.284,2.2846,2.2854,2.2875,2.2879,2.2906,2.2907,2.2939,2.2938,2.2933,2.2932,2.295,2.2948,2.3015,2.3023,2.2972,2.2972,2.2973,0,2.2729,2.2751,2.2768,2.2781,2.279,2.2812,2.2825,2.2827,2.2841,2.2859,2.2875,2.2896,2.2913,2.2948,2.2955,2.2974,2.2971,2.2993,2.2973,2.2971,2.2967,2.2965,2.2966,2.2996,2.2997,2.2997,2.2997,0,2.2786,2.2787,2.2807,2.2826,2.2842,2.2858,2.2873,2.2883,2.2887,2.2902,2.2924,2.2937,2.2962,2.2982,2.3001,2.3008,2.3002,2.3004,2.3009,2.3007,2.3002,2.3002,2.2941,2.3002,2.3001,2.3001,2.3001,2.3001,2.2826,2.2844,2.2857,2.2878,2.2889,2.2902,2.2919,2.2926,2.2944,2.2965,2.2965,2.2988,2.3,2.3024,2.3033,2.305,2.3043,2.3051,2.3052,2.3054,2.3054,2.3002,2.3054,2.3054,2.3054,2.3053,2.3053,0,2.288,2.2888,2.2907,2.2927,2.2943,2.2936,2.2951,2.2964,2.2985,2.2998,2.3014,2.3037,2.3056,2.3064,2.3082,2.3093,2.3091,2.3098,2.3096,2.3097,2.3061,2.3053,2.3099,2.3099,2.3099,2.3099,2.3099,2.3099,2.291,2.2938,2.294,2.2973,2.2981,2.3004,2.3012,2.3023,2.3033,2.3059,2.3075,2.308,2.3089,2.3108,2.3124,2.3125,2.3131,2.3138,2.3139,2.3105,2.31,2.3095,2.3088,2.314,2.314,2.3173,2.3173,2.3173]}]]